Time,TemperatureF,DewpointF,PressureIn,WindDirection,WindDirectionDegrees,WindSpeedMPH,WindSpeedGustMPH,Humidity,HourlyPrecipIn,Conditions,Clouds,dailyrainin,SolarRadiationWatts/m^2,SoftwareType,DateUTC
2013-06-06 00:01:00,64.4,63.5,29.89,West,277,0.0,0.0,97,0.02,,---,0.58,0.00,VWS V14.01,2013-06-06 04:01:00,
2013-06-06 00:02:00,64.3,63.4,29.88,West,277,0.0,0.0,97,0.02,,---,0.58,0.00,VWS V14.01,2013-06-06 04:02:00,
2013-06-06 00:07:00,64.3,63.4,29.88,West,277,0.0,1.0,97,0.02,,---,0.58,0.00,VWS V14.01,2013-06-06 04:07:00,
2013-06-06 00:12:00,64.3,63.4,29.87,West,277,0.0,0.0,97,0.01,,---,0.00,0.00,VWS V14.01,2013-06-06 04:12:00,
2013-06-06 00:17:00,64.3,63.4,29.87,West,277,0.0,0.0,97,0.01,,---,0.00,0.00,VWS V14.01,2013-06-06 04:17:00,
2013-06-06 00:22:00,64.3,63.4,29.86,West,277,0.0,0.0,97,0.01,,---,0.00,0.00,VWS V14.01,2013-06-06 04:22:00,
2013-06-06 00:27:00,64.2,63.3,29.86,West,277,0.0,0.0,97,0.01,,---,0.00,0.00,VWS V14.01,2013-06-06 04:27:00,
2013-06-06 00:32:00,64.2,63.3,29.85,West,277,0.0,1.0,97,0.00,,---,0.00,0.00,VWS V14.01,2013-06-06 04:32:00,
2013-06-06 00:37:00,64.1,63.2,29.85,West,277,0.0,1.0,97,0.00,,---,0.00,0.00,VWS V14.01,2013-06-06 04:37:00,
2013-06-06 00:43:00,64.1,63.2,29.84,West,277,0.0,1.0,97,0.00,,---,0.00,0.00,VWS V14.01,2013-06-06 04:43:00,
2013-06-06 00:48:00,64.0,63.1,29.84,ENE,67,0.0,2.0,97,0.00,,---,0.00,0.00,VWS V14.01,2013-06-06 04:48:00,
2013-06-06 00:53:00,64.0,63.1,29.84,ENE,65,0.0,3.0,97,0.00,,---,0.00,0.00,VWS V14.01,2013-06-06 04:53:00,
2013-06-06 00:58:00,63.9,63.0,29.84,ENE,57,0.0,3.0,97,0.00,,---,0.00,0.00,VWS V14.01,2013-06-06 04:58:00,
2013-06-06 01:03:00,63.8,62.9,29.84,NE,55,0.0,2.0,97,0.00,,---,0.00,0.00,VWS V14.01,2013-06-06 05:03:00,
2013-06-06 01:08:00,63.8,62.9,29.83,NE,55,0.0,2.0,97,0.00,,---,0.00,0.00,VWS V14.01,2013-06-06 05:08:00,
2013-06-06 01:13:00,63.7,62.8,29.83,NE,55,0.0,0.0,97,0.01,,---,0.01,0.00,VWS V14.01,2013-06-06 05:13:00,
2013-06-06 01:18:00,63.6,62.7,29.83,NE,55,0.0,0.0,97,0.01,,---,0.01,0.00,VWS V14.01,2013-06-06 05:18:00,
2013-06-06 01:23:00,63.5,62.6,29.83,NE,55,0.0,0.0,97,0.01,,---,0.01,0.00,VWS V14.01,2013-06-06 05:23:00,
2013-06-06 01:28:00,63.5,62.6,29.83,NE,55,0.0,0.0,97,0.01,,---,0.01,0.00,VWS V14.01,2013-06-06 05:28:00,
2013-06-06 01:33:00,63.5,62.6,29.83,NE,55,0.0,0.0,97,0.01,,---,0.01,0.00,VWS V14.01,2013-06-06 05:33:00,
2013-06-06 01:38:00,63.5,62.6,29.83,NE,55,0.0,0.0,97,0.01,,---,0.01,0.00,VWS V14.01,2013-06-06 05:38:00,
2013-06-06 01:43:00,63.4,62.5,29.82,NE,55,0.0,0.0,97,0.01,,---,0.01,0.00,VWS V14.01,2013-06-06 05:43:00,
2013-06-06 01:48:00,63.4,62.5,29.82,NE,55,0.0,0.0,97,0.01,,---,0.01,0.00,VWS V14.01,2013-06-06 05:48:00,
2013-06-06 01:53:00,63.3,62.4,29.82,NE,55,0.0,0.0,97,0.01,,---,0.01,0.00,VWS V14.01,2013-06-06 05:53:00,
2013-06-06 01:58:00,63.2,62.3,29.82,NE,55,0.0,0.0,97,0.01,,---,0.01,0.00,VWS V14.01,2013-06-06 05:58:00,
2013-06-06 02:03:00,63.2,62.3,29.82,NE,55,0.0,0.0,97,0.01,,---,0.01,0.00,VWS V14.01,2013-06-06 06:03:00,
2013-06-06 02:08:00,63.2,62.3,29.81,NE,55,0.0,0.0,97,0.01,,---,0.01,0.00,VWS V14.01,2013-06-06 06:08:00,
2013-06-06 02:13:00,63.2,62.3,29.82,NE,55,0.0,0.0,97,0.01,,---,0.01,0.00,VWS V14.01,2013-06-06 06:13:00,
2013-06-06 02:18:00,63.2,62.3,29.81,NE,55,0.0,0.0,97,0.01,,---,0.01,0.00,VWS V14.01,2013-06-06 06:18:00,
2013-06-06 02:24:00,63.2,62.3,29.81,NE,55,0.0,0.0,97,0.00,,---,0.01,0.00,VWS V14.01,2013-06-06 06:24:00,
2013-06-06 02:29:00,63.2,62.3,29.81,NE,55,0.0,0.0,97,0.00,,---,0.01,0.00,VWS V14.01,2013-06-06 06:29:00,
2013-06-06 02:34:00,63.2,62.3,29.81,NE,55,0.0,0.0,97,0.00,,---,0.01,0.00,VWS V14.01,2013-06-06 06:34:00,
2013-06-06 02:39:00,63.1,62.2,29.80,NE,55,0.0,0.0,97,0.00,,---,0.01,0.00,VWS V14.01,2013-06-06 06:39:00,
2013-06-06 02:44:00,63.0,62.1,29.80,NE,55,0.0,0.0,97,0.00,,---,0.01,0.00,VWS V14.01,2013-06-06 06:44:00,
2013-06-06 02:49:00,62.9,62.0,29.80,NE,55,0.0,0.0,97,0.00,,---,0.01,0.00,VWS V14.01,2013-06-06 06:49:00,
2013-06-06 02:54:00,62.8,61.9,29.80,NE,55,0.0,0.0,97,0.00,,---,0.01,0.00,VWS V14.01,2013-06-06 06:54:00,
2013-06-06 02:59:00,62.8,62.2,29.80,NE,55,0.0,0.0,98,0.00,,---,0.01,0.00,VWS V14.01,2013-06-06 06:59:00,
2013-06-06 03:04:00,62.7,62.1,29.80,NE,55,0.0,0.0,98,0.00,,---,0.01,0.00,VWS V14.01,2013-06-06 07:04:00,
2013-06-06 03:09:00,62.7,62.1,29.80,NE,55,0.0,0.0,98,0.00,,---,0.01,0.00,VWS V14.01,2013-06-06 07:09:00,
2013-06-06 03:14:00,62.9,62.3,29.79,NE,55,0.0,0.0,98,0.00,,---,0.01,0.00,VWS V14.01,2013-06-06 07:14:00,
2013-06-06 03:19:00,63.0,62.4,29.79,NE,55,0.0,0.0,98,0.00,,---,0.01,0.00,VWS V14.01,2013-06-06 07:19:00,
2013-06-06 03:24:00,63.0,62.4,29.79,NE,55,0.0,0.0,98,0.00,,---,0.01,0.00,VWS V14.01,2013-06-06 07:24:00,
2013-06-06 03:29:00,62.9,62.3,29.79,NE,55,0.0,0.0,98,0.00,,---,0.01,0.00,VWS V14.01,2013-06-06 07:29:00,
2013-06-06 03:34:00,62.7,62.1,29.79,NE,55,0.0,0.0,98,0.00,,---,0.01,0.00,VWS V14.01,2013-06-06 07:34:00,
2013-06-06 03:39:00,62.7,62.1,29.79,NE,55,0.0,0.0,98,0.00,,---,0.01,0.00,VWS V14.01,2013-06-06 07:39:00,
2013-06-06 03:44:00,62.7,62.1,29.79,NE,55,0.0,0.0,98,0.00,,---,0.01,0.00,VWS V14.01,2013-06-06 07:44:00,
2013-06-06 03:49:00,62.7,62.1,29.79,NE,55,0.0,0.0,98,0.00,,---,0.01,0.00,VWS V14.01,2013-06-06 07:49:00,
2013-06-06 03:54:00,62.7,62.1,29.79,NE,55,0.0,0.0,98,0.00,,---,0.01,0.00,VWS V14.01,2013-06-06 07:54:00,
2013-06-06 03:59:00,62.7,62.1,29.79,NE,55,0.0,0.0,98,0.00,,---,0.01,0.00,VWS V14.01,2013-06-06 07:59:00,
2013-06-06 04:04:00,62.7,62.1,29.79,NE,55,0.0,0.0,98,0.00,,---,0.01,0.00,VWS V14.01,2013-06-06 08:04:00,
2013-06-06 04:09:00,62.9,62.3,29.79,NE,55,0.0,0.0,98,0.00,,---,0.01,0.00,VWS V14.01,2013-06-06 08:09:00,
2013-06-06 04:14:00,62.9,62.3,29.79,NE,55,0.0,0.0,98,0.00,,---,0.01,0.00,VWS V14.01,2013-06-06 08:14:00,
2013-06-06 04:19:00,63.0,62.4,29.79,NE,55,0.0,0.0,98,0.00,,---,0.01,0.00,VWS V14.01,2013-06-06 08:19:00,
2013-06-06 04:24:00,63.1,62.5,29.79,NE,55,0.0,0.0,98,0.00,,---,0.01,0.00,VWS V14.01,2013-06-06 08:24:00,
2013-06-06 04:29:00,63.2,62.6,29.79,NE,55,0.0,0.0,98,0.00,,---,0.01,0.00,VWS V14.01,2013-06-06 08:29:00,
2013-06-06 04:35:00,63.3,62.7,29.79,NE,55,0.0,0.0,98,0.00,,---,0.01,0.00,VWS V14.01,2013-06-06 08:35:00,
2013-06-06 04:40:00,63.5,62.9,29.78,NE,55,0.0,0.0,98,0.00,,---,0.01,0.00,VWS V14.01,2013-06-06 08:40:00,
2013-06-06 04:45:00,63.6,63.0,29.79,NE,55,0.0,0.0,98,0.00,,---,0.01,0.00,VWS V14.01,2013-06-06 08:45:00,
2013-06-06 04:50:00,63.6,63.0,29.78,NE,55,0.0,0.0,98,0.00,,---,0.01,0.00,VWS V14.01,2013-06-06 08:50:00,
2013-06-06 04:55:00,63.6,63.0,29.78,NE,55,0.0,0.0,98,0.00,,---,0.01,0.00,VWS V14.01,2013-06-06 08:55:00,
2013-06-06 05:00:00,63.6,63.0,29.78,NE,55,0.0,0.0,98,0.00,,---,0.01,0.00,VWS V14.01,2013-06-06 09:00:00,
2013-06-06 05:05:00,63.7,63.1,29.78,NE,55,0.0,0.0,98,0.00,,---,0.01,0.00,VWS V14.01,2013-06-06 09:05:00,
2013-06-06 05:10:00,63.8,63.2,29.78,NE,55,0.0,0.0,98,0.00,,---,0.01,0.00,VWS V14.01,2013-06-06 09:10:00,
2013-06-06 05:15:00,63.8,63.2,29.78,NE,55,0.0,0.0,98,0.00,,---,0.01,0.00,VWS V14.01,2013-06-06 09:15:00,
2013-06-06 05:20:00,63.8,63.2,29.78,NE,55,0.0,0.0,98,0.00,,---,0.01,0.00,VWS V14.01,2013-06-06 09:20:00,
2013-06-06 05:26:00,63.8,63.2,29.78,NE,55,0.0,0.0,98,0.00,,---,0.01,0.00,VWS V14.01,2013-06-06 09:26:00,
2013-06-06 05:31:00,63.8,63.2,29.78,NE,55,0.0,0.0,98,0.00,,---,0.01,0.00,VWS V14.01,2013-06-06 09:31:00,
2013-06-06 05:36:00,63.8,63.2,29.78,NE,55,0.0,0.0,98,0.00,,---,0.01,0.00,VWS V14.01,2013-06-06 09:36:00,
2013-06-06 05:41:00,63.7,63.1,29.78,NE,55,0.0,0.0,98,0.00,,---,0.01,0.00,VWS V14.01,2013-06-06 09:41:00,
2013-06-06 05:46:00,63.7,63.1,29.78,NE,55,0.0,0.0,98,0.00,,---,0.01,0.00,VWS V14.01,2013-06-06 09:46:00,
2013-06-06 05:51:00,63.7,63.1,29.78,NE,55,0.0,0.0,98,0.00,,---,0.01,0.00,VWS V14.01,2013-06-06 09:51:00,
2013-06-06 05:56:00,63.7,63.1,29.78,NE,55,0.0,0.0,98,0.00,,---,0.01,0.00,VWS V14.01,2013-06-06 09:56:00,
2013-06-06 06:02:00,63.7,63.1,29.78,NE,55,0.0,0.0,98,0.00,,---,0.01,0.00,VWS V14.01,2013-06-06 10:02:00,
2013-06-06 06:07:00,63.7,63.1,29.78,NE,55,0.0,0.0,98,0.00,,---,0.01,0.00,VWS V14.01,2013-06-06 10:07:00,
2013-06-06 06:12:00,63.7,63.1,29.77,NE,55,0.0,0.0,98,0.00,,---,0.01,0.00,VWS V14.01,2013-06-06 10:12:00,
2013-06-06 06:17:00,63.7,63.1,29.78,NE,55,0.0,0.0,98,0.00,,---,0.01,0.00,VWS V14.01,2013-06-06 10:17:00,
2013-06-06 06:22:00,63.8,63.2,29.78,NE,55,0.0,0.0,98,0.00,,---,0.01,0.00,VWS V14.01,2013-06-06 10:22:00,
2013-06-06 06:27:00,63.8,63.2,29.78,NE,55,0.0,0.0,98,0.00,,---,0.01,5.00,VWS V14.01,2013-06-06 10:27:00,
2013-06-06 06:32:00,63.9,63.3,29.78,NE,55,0.0,0.0,98,0.00,,---,0.01,7.00,VWS V14.01,2013-06-06 10:32:00,
2013-06-06 06:37:00,63.9,63.3,29.78,NE,55,0.0,0.0,98,0.00,,---,0.01,9.00,VWS V14.01,2013-06-06 10:37:00,
2013-06-06 06:42:00,63.9,63.3,29.78,NE,55,0.0,0.0,98,0.00,,---,0.01,11.00,VWS V14.01,2013-06-06 10:42:00,
2013-06-06 06:47:00,64.0,63.4,29.78,NE,55,0.0,0.0,98,0.00,,---,0.01,12.00,VWS V14.01,2013-06-06 10:47:00,
2013-06-06 06:52:00,64.0,63.4,29.78,NE,55,0.0,0.0,98,0.00,,---,0.01,14.00,VWS V14.01,2013-06-06 10:52:00,
2013-06-06 06:57:00,64.0,63.4,29.78,NE,55,0.0,0.0,98,0.00,,---,0.01,14.00,VWS V14.01,2013-06-06 10:57:00,
2013-06-06 07:02:00,64.0,63.4,29.78,NE,55,0.0,0.0,98,0.00,,---,0.01,19.00,VWS V14.01,2013-06-06 11:02:00,
2013-06-06 07:07:00,64.0,63.4,29.78,NE,55,0.0,0.0,98,0.00,,---,0.01,30.00,VWS V14.01,2013-06-06 11:07:00,
2013-06-06 07:12:00,64.1,63.5,29.78,NE,55,0.0,0.0,98,0.00,,---,0.01,35.00,VWS V14.01,2013-06-06 11:12:00,
2013-06-06 07:17:00,64.2,63.6,29.78,NE,55,0.0,0.0,98,0.00,,---,0.01,44.00,VWS V14.01,2013-06-06 11:17:00,
2013-06-06 07:22:00,64.4,63.8,29.78,NE,55,0.0,0.0,98,0.00,,---,0.01,47.00,VWS V14.01,2013-06-06 11:22:00,
2013-06-06 07:28:00,64.5,63.9,29.77,NE,55,0.0,0.0,98,0.00,,---,0.01,53.00,VWS V14.01,2013-06-06 11:28:00,
2013-06-06 07:33:00,64.6,64.0,29.77,NE,55,0.0,0.0,98,0.00,,---,0.01,58.00,VWS V14.01,2013-06-06 11:33:00,
2013-06-06 07:38:00,64.7,64.1,29.77,NE,55,0.0,0.0,98,0.00,,---,0.01,63.00,VWS V14.01,2013-06-06 11:38:00,
2013-06-06 07:43:00,64.9,64.6,29.77,NE,55,0.0,0.0,99,0.00,,---,0.01,62.00,VWS V14.01,2013-06-06 11:43:00,
2013-06-06 07:48:00,65.1,64.5,29.77,NE,55,0.0,0.0,98,0.00,,---,0.01,72.00,VWS V14.01,2013-06-06 11:48:00,
2013-06-06 07:53:00,65.3,64.7,29.77,NE,55,0.0,0.0,98,0.00,,---,0.01,88.00,VWS V14.01,2013-06-06 11:53:00,
2013-06-06 07:58:00,65.4,65.1,29.77,NE,55,0.0,0.0,99,0.00,,---,0.01,105.00,VWS V14.01,2013-06-06 11:58:00,
2013-06-06 08:03:00,65.6,65.3,29.77,NE,55,0.0,0.0,99,0.00,,---,0.01,107.00,VWS V14.01,2013-06-06 12:03:00,
2013-06-06 08:08:00,65.9,65.6,29.77,NE,53,0.0,0.0,99,0.00,,---,0.01,113.00,VWS V14.01,2013-06-06 12:08:00,
2013-06-06 08:13:00,66.2,65.9,29.77,NE,53,0.0,0.0,99,0.00,,---,0.01,134.00,VWS V14.01,2013-06-06 12:13:00,
2013-06-06 08:18:00,66.4,66.1,29.77,NE,55,0.0,1.0,99,0.00,,---,0.01,139.00,VWS V14.01,2013-06-06 12:18:00,
2013-06-06 08:23:00,66.5,66.2,29.77,NE,53,0.0,1.0,99,0.00,,---,0.01,121.00,VWS V14.01,2013-06-06 12:23:00,
2013-06-06 08:28:00,66.7,66.4,29.77,NE,55,0.0,1.0,99,0.00,,---,0.01,104.00,VWS V14.01,2013-06-06 12:28:00,
2013-06-06 08:34:00,66.6,66.3,29.77,NE,55,0.0,0.0,99,0.00,,---,0.01,113.00,VWS V14.01,2013-06-06 12:34:00,
2013-06-06 08:39:00,66.4,65.8,29.77,NE,55,0.0,0.0,98,0.00,,---,0.01,134.00,VWS V14.01,2013-06-06 12:39:00,
2013-06-06 08:44:00,66.6,66.3,29.77,NE,55,0.0,1.0,99,0.00,,---,0.01,171.00,VWS V14.01,2013-06-06 12:44:00,
2013-06-06 08:49:00,66.9,66.6,29.77,NE,55,0.0,0.0,99,0.00,,---,0.01,137.00,VWS V14.01,2013-06-06 12:49:00,
2013-06-06 08:54:00,67.0,66.7,29.77,NE,55,0.0,1.0,99,0.00,,---,0.01,155.00,VWS V14.01,2013-06-06 12:54:00,
2013-06-06 08:59:00,67.2,66.9,29.77,NE,55,0.0,0.0,99,0.00,,---,0.01,167.00,VWS V14.01,2013-06-06 12:59:00,
2013-06-06 09:05:00,67.4,67.1,29.77,NE,55,0.0,1.0,99,0.00,,---,0.01,221.00,VWS V14.01,2013-06-06 13:05:00,
2013-06-06 09:10:00,67.4,67.1,29.77,ESE,109,0.0,0.0,99,0.00,,---,0.01,148.00,VWS V14.01,2013-06-06 13:10:00,
2013-06-06 09:15:00,67.5,67.2,29.77,ESE,108,0.0,1.0,99,0.00,,---,0.01,109.00,VWS V14.01,2013-06-06 13:15:00,
2013-06-06 09:20:00,67.5,67.2,29.77,ESE,108,0.0,0.0,99,0.00,,---,0.01,156.00,VWS V14.01,2013-06-06 13:20:00,
2013-06-06 09:25:00,67.7,67.1,29.77,ESE,108,0.0,0.0,98,0.00,,---,0.01,446.00,VWS V14.01,2013-06-06 13:25:00,
2013-06-06 09:30:00,68.3,68.0,29.77,East,101,0.0,1.0,99,0.00,,---,0.01,543.00,VWS V14.01,2013-06-06 13:30:00,
2013-06-06 09:35:00,68.2,67.6,29.77,East,101,0.0,1.0,98,0.00,,---,0.01,606.00,VWS V14.01,2013-06-06 13:35:00,
2013-06-06 09:40:00,68.6,68.0,29.77,East,100,0.0,0.0,98,0.00,,---,0.01,608.00,VWS V14.01,2013-06-06 13:40:00,
2013-06-06 09:45:00,69.5,68.9,29.77,East,101,0.0,1.0,98,0.00,,---,0.01,680.00,VWS V14.01,2013-06-06 13:45:00,
2013-06-06 09:50:00,70.0,69.1,29.77,East,101,0.0,1.0,97,0.00,,---,0.01,733.00,VWS V14.01,2013-06-06 13:50:00,
2013-06-06 09:55:00,70.3,69.1,29.77,East,101,0.0,1.0,96,0.00,,---,0.01,649.00,VWS V14.01,2013-06-06 13:55:00,
2013-06-06 10:00:00,70.9,69.4,29.77,East,100,0.0,0.0,95,0.00,,---,0.01,325.00,VWS V14.01,2013-06-06 14:00:00,
2013-06-06 10:06:00,71.0,68.2,29.77,East,100,0.0,1.0,91,0.00,,---,0.01,396.00,VWS V14.01,2013-06-06 14:06:00,
2013-06-06 10:11:00,71.0,68.6,29.77,East,100,0.0,0.0,92,0.00,,---,0.01,278.00,VWS V14.01,2013-06-06 14:11:00,
2013-06-06 10:16:00,71.0,68.2,29.76,East,100,0.0,1.0,91,0.00,,---,0.01,306.00,VWS V14.01,2013-06-06 14:16:00,
2013-06-06 10:21:00,71.1,68.3,29.76,East,100,0.0,1.0,91,0.00,,---,0.01,828.00,VWS V14.01,2013-06-06 14:21:00,
2013-06-06 10:27:00,71.7,69.3,29.77,East,100,0.0,2.0,92,0.00,,---,0.01,376.00,VWS V14.01,2013-06-06 14:27:00,
2013-06-06 10:32:00,72.2,69.4,29.77,East,99,0.0,1.0,91,0.00,,---,0.01,547.00,VWS V14.01,2013-06-06 14:32:00,
2013-06-06 10:38:00,72.9,69.8,29.77,NE,55,0.0,3.0,90,0.00,,---,0.01,272.00,VWS V14.01,2013-06-06 14:38:00,
2013-06-06 10:43:00,72.9,68.8,29.77,NE,43,0.0,3.0,87,0.00,,---,0.01,269.00,VWS V14.01,2013-06-06 14:43:00,
2013-06-06 10:48:00,72.9,69.1,29.77,NE,43,0.0,3.0,88,0.00,,---,0.01,332.00,VWS V14.01,2013-06-06 14:48:00,
2013-06-06 10:53:00,73.1,69.3,29.77,NE,43,0.0,1.0,88,0.00,,---,0.01,381.00,VWS V14.01,2013-06-06 14:53:00,
2013-06-06 10:58:00,73.2,69.1,29.77,NE,43,0.0,2.0,87,0.00,,---,0.01,584.00,VWS V14.01,2013-06-06 14:58:00,
2013-06-06 11:03:00,73.5,69.1,29.77,NE,42,0.0,1.0,86,0.00,,---,0.01,638.00,VWS V14.01,2013-06-06 15:03:00,
2013-06-06 11:08:00,73.9,69.4,29.78,NE,38,1.0,2.0,86,0.00,,---,0.01,355.00,VWS V14.01,2013-06-06 15:08:00,
2013-06-06 11:13:00,73.9,69.4,29.78,NE,40,0.0,2.0,86,0.00,,---,0.01,378.00,VWS V14.01,2013-06-06 15:13:00,
2013-06-06 11:18:00,74.0,68.9,29.78,NE,40,1.0,3.0,84,0.00,,---,0.01,492.00,VWS V14.01,2013-06-06 15:18:00,
2013-06-06 11:23:00,74.1,69.0,29.78,NE,40,0.0,2.0,84,0.00,,---,0.01,397.00,VWS V14.01,2013-06-06 15:23:00,
2013-06-06 11:29:00,74.1,68.3,29.78,WNW,287,2.0,2.0,82,0.00,,---,0.01,374.00,VWS V14.01,2013-06-06 15:29:00,
2013-06-06 11:34:00,74.1,68.3,29.78,WSW,251,0.0,4.0,82,0.00,,---,0.01,343.00,VWS V14.01,2013-06-06 15:34:00,
2013-06-06 11:39:00,74.2,68.4,29.77,West,279,0.0,1.0,82,0.00,,---,0.01,373.00,VWS V14.01,2013-06-06 15:39:00,
2013-06-06 11:44:00,74.3,68.8,29.77,West,279,0.0,1.0,83,0.00,,---,0.01,605.00,VWS V14.01,2013-06-06 15:44:00,
2013-06-06 11:49:00,74.5,68.3,29.77,West,279,1.0,1.0,81,0.00,,---,0.01,436.00,VWS V14.01,2013-06-06 15:49:00,
2013-06-06 11:54:00,74.5,68.3,29.77,West,279,0.0,2.0,81,0.00,,---,0.01,452.00,VWS V14.01,2013-06-06 15:54:00,
2013-06-06 11:59:00,74.5,68.7,29.77,West,279,0.0,1.0,82,0.00,,---,0.01,441.00,VWS V14.01,2013-06-06 15:59:00,
2013-06-06 12:04:00,74.6,68.0,29.77,WSW,239,2.0,4.0,80,0.00,,---,0.01,475.00,VWS V14.01,2013-06-06 16:04:00,
2013-06-06 12:09:00,74.8,68.6,29.77,WSW,243,0.0,3.0,81,0.00,,---,0.01,489.00,VWS V14.01,2013-06-06 16:09:00,
2013-06-06 12:14:00,74.9,68.7,29.78,West,262,1.0,3.0,81,0.00,,---,0.01,571.00,VWS V14.01,2013-06-06 16:14:00,
2013-06-06 12:19:00,75.1,69.2,29.77,WNW,284,4.0,4.0,82,0.00,,---,0.01,606.00,VWS V14.01,2013-06-06 16:19:00,
2013-06-06 12:24:00,75.5,69.3,29.77,WSW,242,0.0,5.0,81,0.00,,---,0.01,1280.00,VWS V14.01,2013-06-06 16:24:00,
2013-06-06 12:29:00,76.0,69.8,29.77,West,269,1.0,5.0,81,0.00,,---,0.01,566.00,VWS V14.01,2013-06-06 16:29:00,
2013-06-06 12:35:00,76.0,69.4,29.77,WNW,288,1.0,6.0,80,0.00,,---,0.01,485.00,VWS V14.01,2013-06-06 16:35:00,
2013-06-06 12:40:00,75.9,68.9,29.76,West,279,1.0,4.0,79,0.00,,---,0.01,647.00,VWS V14.01,2013-06-06 16:40:00,
2013-06-06 12:45:00,76.0,69.0,29.76,West,280,1.0,6.0,79,0.00,,---,0.01,1055.00,VWS V14.01,2013-06-06 16:45:00,
2013-06-06 12:50:00,76.6,69.6,29.76,SW,231,0.0,7.0,79,0.00,,---,0.01,1055.00,VWS V14.01,2013-06-06 16:50:00,
2013-06-06 12:55:00,77.0,69.2,29.76,West,259,1.0,8.0,77,0.00,,---,0.01,902.00,VWS V14.01,2013-06-06 16:55:00,
2013-06-06 13:00:00,77.3,69.5,29.76,West,271,4.0,6.0,77,0.00,,---,0.01,1179.00,VWS V14.01,2013-06-06 17:00:00,
2013-06-06 13:05:00,77.6,69.1,29.76,SSW,199,0.0,8.0,75,0.00,,---,0.01,802.00,VWS V14.01,2013-06-06 17:05:00,
2013-06-06 13:11:00,77.5,68.2,29.75,SW,223,4.0,7.0,73,0.00,,---,0.01,1178.00,VWS V14.01,2013-06-06 17:11:00,
2013-06-06 13:16:00,77.7,69.5,29.75,West,275,1.0,7.0,76,0.00,,---,0.01,1099.00,VWS V14.01,2013-06-06 17:16:00,
2013-06-06 13:21:00,77.9,68.9,29.75,WSW,250,2.0,4.0,74,0.00,,---,0.01,1125.00,VWS V14.01,2013-06-06 17:21:00,
2013-06-06 13:26:00,78.2,69.2,29.75,NW,308,5.0,11.0,74,0.00,,---,0.01,895.00,VWS V14.01,2013-06-06 17:26:00,
2013-06-06 13:31:00,78.2,69.2,29.75,West,269,1.0,4.0,74,0.00,,---,0.01,476.00,VWS V14.01,2013-06-06 17:31:00,
2013-06-06 13:36:00,77.9,69.3,29.75,WNW,300,4.0,6.0,75,0.00,,---,0.01,621.00,VWS V14.01,2013-06-06 17:36:00,
2013-06-06 13:41:00,77.7,68.8,29.75,SW,236,0.0,11.0,74,0.00,,---,0.01,703.00,VWS V14.01,2013-06-06 17:41:00,
2013-06-06 13:47:00,77.6,67.9,29.74,SW,221,0.0,11.0,72,0.00,,---,0.01,589.00,VWS V14.01,2013-06-06 17:47:00,
2013-06-06 13:52:00,77.5,68.2,29.75,WSW,243,3.0,5.0,73,0.00,,---,0.01,301.00,VWS V14.01,2013-06-06 17:52:00,
2013-06-06 13:57:00,76.9,67.6,29.74,WSW,244,0.0,6.0,73,0.00,,---,0.01,311.00,VWS V14.01,2013-06-06 17:57:00,
2013-06-06 14:02:00,76.6,68.5,29.74,WSW,241,4.0,5.0,76,0.00,,---,0.01,390.00,VWS V14.01,2013-06-06 18:02:00,
2013-06-06 14:07:00,76.4,68.7,29.74,WSW,239,0.0,5.0,77,0.00,,---,0.01,418.00,VWS V14.01,2013-06-06 18:07:00,
2013-06-06 14:12:00,76.2,67.7,29.74,NW,319,0.0,6.0,75,0.00,,---,0.01,399.00,VWS V14.01,2013-06-06 18:12:00,
2013-06-06 14:17:00,76.0,68.3,29.73,SSW,211,0.0,6.0,77,0.00,,---,0.01,445.00,VWS V14.01,2013-06-06 18:17:00,
2013-06-06 14:22:00,76.0,68.7,29.73,WSW,237,4.0,7.0,78,0.00,,---,0.01,471.00,VWS V14.01,2013-06-06 18:22:00,
2013-06-06 14:27:00,76.0,67.9,29.72,South,181,0.0,7.0,76,0.00,,---,0.01,557.00,VWS V14.01,2013-06-06 18:27:00,
2013-06-06 14:33:00,76.2,68.8,29.72,SW,234,0.0,6.0,78,0.00,,---,0.01,492.00,VWS V14.01,2013-06-06 18:33:00,
2013-06-06 14:38:00,76.4,68.3,29.72,WSW,243,2.0,6.0,76,0.00,,---,0.01,503.00,VWS V14.01,2013-06-06 18:38:00,
2013-06-06 14:43:00,76.4,68.7,29.72,SW,232,4.0,6.0,77,0.00,,---,0.01,490.00,VWS V14.01,2013-06-06 18:43:00,
2013-06-06 14:48:00,76.2,67.7,29.72,WSW,239,0.0,7.0,75,0.00,,---,0.01,515.00,VWS V14.01,2013-06-06 18:48:00,
2013-06-06 14:53:00,76.1,68.0,29.72,WSW,246,1.0,10.0,76,0.00,,---,0.01,526.00,VWS V14.01,2013-06-06 18:53:00,
2013-06-06 14:58:00,76.3,68.2,29.72,SW,232,4.0,10.0,76,0.00,,---,0.01,536.00,VWS V14.01,2013-06-06 18:58:00,
2013-06-06 15:03:00,76.6,68.9,29.72,SW,233,0.0,4.0,77,0.00,,---,0.01,552.00,VWS V14.01,2013-06-06 19:03:00,
2013-06-06 15:08:00,76.9,68.0,29.72,SW,233,0.0,4.0,74,0.00,,---,0.01,765.00,VWS V14.01,2013-06-06 19:08:00,
2013-06-06 15:14:00,77.4,68.5,29.71,SW,233,0.0,3.0,74,0.00,,---,0.01,636.00,VWS V14.01,2013-06-06 19:14:00,
2013-06-06 15:19:00,78.0,69.1,29.71,WSW,244,1.0,2.0,74,0.00,,---,0.01,837.00,VWS V14.01,2013-06-06 19:19:00,
2013-06-06 15:24:00,78.4,68.6,29.71,West,269,0.0,3.0,72,0.00,,---,0.01,782.00,VWS V14.01,2013-06-06 19:24:00,
2013-06-06 15:29:00,78.7,69.3,29.71,WNW,302,2.0,4.0,73,0.00,,---,0.01,624.00,VWS V14.01,2013-06-06 19:29:00,
2013-06-06 15:34:00,78.7,68.1,29.71,WNW,288,1.0,4.0,70,0.00,,---,0.01,461.00,VWS V14.01,2013-06-06 19:34:00,
2013-06-06 15:37:00,78.6,68.4,29.71,SW,234,0.0,4.0,71,0.00,,---,0.01,508.00,VWS V14.01,2013-06-06 19:37:00,
2013-06-06 15:42:00,78.5,67.5,29.71,SW,236,2.0,4.0,69,0.00,,---,0.01,436.00,VWS V14.01,2013-06-06 19:42:00,
2013-06-06 15:47:00,78.1,67.9,29.71,WSW,248,0.0,5.0,71,0.00,,---,0.01,422.00,VWS V14.01,2013-06-06 19:47:00,
2013-06-06 15:52:00,77.8,68.1,29.70,SW,233,0.0,4.0,72,0.00,,---,0.01,503.00,VWS V14.01,2013-06-06 19:52:00,
2013-06-06 15:57:00,77.9,68.2,29.70,WSW,258,0.0,4.0,72,0.00,,---,0.01,585.00,VWS V14.01,2013-06-06 19:57:00,
2013-06-06 16:02:00,78.3,68.9,29.70,West,259,0.0,3.0,73,0.00,,---,0.01,601.00,VWS V14.01,2013-06-06 20:02:00,
2013-06-06 16:07:00,78.6,68.8,29.70,NNW,344,5.0,5.0,72,0.00,,---,0.01,529.00,VWS V14.01,2013-06-06 20:07:00,
2013-06-06 16:12:00,78.4,69.0,29.70,SW,236,0.0,5.0,73,0.00,,---,0.01,524.00,VWS V14.01,2013-06-06 20:12:00,
2013-06-06 16:17:00,78.2,68.8,29.70,WNW,284,0.0,8.0,73,0.00,,---,0.01,534.00,VWS V14.01,2013-06-06 20:17:00,
2013-06-06 16:23:00,78.4,70.2,29.70,WNW,284,1.0,2.0,76,0.00,,---,0.01,397.00,VWS V14.01,2013-06-06 20:23:00,
2013-06-06 16:28:00,78.5,69.5,29.70,SW,218,1.0,3.0,74,0.00,,---,0.01,401.00,VWS V14.01,2013-06-06 20:28:00,
2013-06-06 16:33:00,78.4,69.0,29.70,WSW,254,0.0,5.0,73,0.00,,---,0.01,466.00,VWS V14.01,2013-06-06 20:33:00,
2013-06-06 16:38:00,78.4,69.4,29.70,WSW,249,0.0,5.0,74,0.00,,---,0.01,513.00,VWS V14.01,2013-06-06 20:38:00,
2013-06-06 16:43:00,78.2,69.2,29.70,WSW,240,2.0,4.0,74,0.00,,---,0.01,494.00,VWS V14.01,2013-06-06 20:43:00,
2013-06-06 16:48:00,78.1,68.8,29.70,NNW,346,0.0,6.0,73,0.00,,---,0.01,496.00,VWS V14.01,2013-06-06 20:48:00,
2013-06-06 16:53:00,78.3,69.3,29.70,NW,315,0.0,4.0,74,0.00,,---,0.01,522.00,VWS V14.01,2013-06-06 20:53:00,
2013-06-06 16:58:00,78.6,69.2,29.70,WNW,282,4.0,6.0,73,0.00,,---,0.01,601.00,VWS V14.01,2013-06-06 20:58:00,
2013-06-06 17:03:00,78.6,69.2,29.70,SW,222,0.0,4.0,73,0.00,,---,0.01,529.00,VWS V14.01,2013-06-06 21:03:00,
2013-06-06 17:08:00,78.8,69.4,29.70,SW,236,1.0,4.0,73,0.00,,---,0.01,613.00,VWS V14.01,2013-06-06 21:08:00,
2013-06-06 17:13:00,78.9,69.1,29.70,West,280,0.0,4.0,72,0.00,,---,0.01,633.00,VWS V14.01,2013-06-06 21:13:00,
2013-06-06 17:18:00,79.1,70.5,29.69,West,266,2.0,4.0,75,0.00,,---,0.01,350.00,VWS V14.01,2013-06-06 21:18:00,
2013-06-06 17:24:00,79.1,69.7,29.69,West,266,0.0,2.0,73,0.00,,---,0.01,346.00,VWS V14.01,2013-06-06 21:24:00,
2013-06-06 17:29:00,78.9,69.9,29.69,WSW,257,2.0,2.0,74,0.00,,---,0.01,350.00,VWS V14.01,2013-06-06 21:29:00,
2013-06-06 17:34:00,78.5,69.5,29.69,WSW,244,1.0,4.0,74,0.00,,---,0.01,330.00,VWS V14.01,2013-06-06 21:34:00,
2013-06-06 17:39:00,78.1,68.8,29.69,WSW,242,0.0,0.0,73,0.00,,---,0.01,276.00,VWS V14.01,2013-06-06 21:39:00,
2013-06-06 17:44:00,77.7,68.8,29.69,SW,235,1.0,7.0,74,0.00,,---,0.01,251.00,VWS V14.01,2013-06-06 21:44:00,
2013-06-06 17:49:00,77.4,69.6,29.69,SW,235,0.0,1.0,77,0.00,,---,0.01,287.00,VWS V14.01,2013-06-06 21:49:00,
2013-06-06 17:54:00,77.5,69.3,29.69,SW,230,0.0,2.0,76,0.00,,---,0.01,396.00,VWS V14.01,2013-06-06 21:54:00,
2013-06-06 17:59:00,77.7,69.2,29.69,SW,235,0.0,0.0,75,0.00,,---,0.01,255.00,VWS V14.01,2013-06-06 21:59:00,
2013-06-06 18:04:00,77.8,69.2,29.69,SW,235,0.0,3.0,75,0.00,,---,0.01,436.00,VWS V14.01,2013-06-06 22:04:00,
2013-06-06 18:09:00,78.2,69.6,29.68,SW,235,0.0,0.0,75,0.00,,---,0.01,424.00,VWS V14.01,2013-06-06 22:09:00,
2013-06-06 18:14:00,78.7,70.1,29.68,SW,235,0.0,3.0,75,0.00,,---,0.01,499.00,VWS V14.01,2013-06-06 22:14:00,
2013-06-06 18:19:00,79.1,69.7,29.68,SW,235,0.0,0.0,73,0.00,,---,0.01,408.00,VWS V14.01,2013-06-06 22:19:00,
2013-06-06 18:24:00,79.5,69.7,29.68,SW,235,0.0,2.0,72,0.00,,---,0.01,540.00,VWS V14.01,2013-06-06 22:24:00,
2013-06-06 18:29:00,79.8,70.0,29.68,SW,235,0.0,1.0,72,0.00,,---,0.01,380.00,VWS V14.01,2013-06-06 22:29:00,
2013-06-06 18:34:00,79.8,68.7,29.68,SW,235,0.0,2.0,69,0.00,,---,0.01,367.00,VWS V14.01,2013-06-06 22:34:00,
2013-06-06 18:40:00,79.9,69.7,29.68,SW,235,0.0,0.0,71,0.00,,---,0.01,388.00,VWS V14.01,2013-06-06 22:40:00,
2013-06-06 18:45:00,80.2,70.4,29.68,SW,235,0.0,1.0,72,0.00,,---,0.01,221.00,VWS V14.01,2013-06-06 22:45:00,
2013-06-06 18:50:00,80.3,70.1,29.68,SW,235,0.0,1.0,71,0.00,,---,0.01,197.00,VWS V14.01,2013-06-06 22:50:00,
2013-06-06 18:55:00,79.8,70.0,29.68,SW,235,0.0,1.0,72,0.00,,---,0.01,186.00,VWS V14.01,2013-06-06 22:55:00,
2013-06-06 19:00:00,79.6,70.2,29.68,WSW,248,0.0,0.0,73,0.00,,---,0.01,183.00,VWS V14.01,2013-06-06 23:00:00,
2013-06-06 19:05:00,79.5,71.3,29.68,ESE,122,0.0,0.0,76,0.00,,---,0.01,176.00,VWS V14.01,2013-06-06 23:05:00,
2013-06-06 19:10:00,79.2,70.2,29.68,ESE,122,0.0,0.0,74,0.00,,---,0.01,144.00,VWS V14.01,2013-06-06 23:10:00,
2013-06-06 19:15:00,78.9,70.7,29.68,ESE,122,0.0,0.0,76,0.00,,---,0.01,127.00,VWS V14.01,2013-06-06 23:15:00,
2013-06-06 19:20:00,78.7,70.9,29.68,ESE,122,0.0,0.0,77,0.00,,---,0.01,113.00,VWS V14.01,2013-06-06 23:20:00,
2013-06-06 19:25:00,78.5,71.1,29.68,ESE,122,0.0,0.0,78,0.00,,---,0.01,97.00,VWS V14.01,2013-06-06 23:25:00,
2013-06-06 19:30:00,78.3,71.3,29.68,ESE,122,0.0,0.0,79,0.00,,---,0.01,88.00,VWS V14.01,2013-06-06 23:30:00,
2013-06-06 19:35:00,78.1,71.1,29.68,ESE,122,0.0,0.0,79,0.00,,---,0.01,81.00,VWS V14.01,2013-06-06 23:35:00,
2013-06-06 19:40:00,77.5,69.7,29.68,ESE,122,0.0,0.0,77,0.00,,---,0.01,74.00,VWS V14.01,2013-06-06 23:40:00,
2013-06-06 19:45:00,76.9,69.2,29.68,ESE,122,0.0,1.0,77,0.00,,---,0.01,65.00,VWS V14.01,2013-06-06 23:45:00,
2013-06-06 19:51:00,76.3,69.3,29.68,ESE,122,0.0,0.0,79,0.00,,---,0.01,58.00,VWS V14.01,2013-06-06 23:51:00,
2013-06-06 19:56:00,75.8,69.6,29.68,ESE,122,0.0,0.0,81,0.00,,---,0.01,51.00,VWS V14.01,2013-06-06 23:56:00,
2013-06-06 20:01:00,75.3,69.4,29.68,ESE,122,0.0,0.0,82,0.00,,---,0.01,42.00,VWS V14.01,2013-06-07 00:01:00,
2013-06-06 20:06:00,74.9,69.0,29.68,ESE,122,0.0,0.0,82,0.00,,---,0.01,35.00,VWS V14.01,2013-06-07 00:06:00,
2013-06-06 20:11:00,74.6,68.4,29.67,ESE,122,0.0,0.0,81,0.00,,---,0.01,28.00,VWS V14.01,2013-06-07 00:11:00,
2013-06-06 20:16:00,74.2,68.4,29.67,ESE,122,0.0,0.0,82,0.00,,---,0.01,23.00,VWS V14.01,2013-06-07 00:16:00,
2013-06-06 20:21:00,73.9,68.4,29.68,NE,56,0.0,1.0,83,0.00,,---,0.01,16.00,VWS V14.01,2013-06-07 00:21:00,
2013-06-06 20:26:00,73.6,68.8,29.68,NE,42,1.0,1.0,85,0.00,,---,0.01,12.00,VWS V14.01,2013-06-07 00:26:00,
2013-06-06 20:31:00,73.2,68.4,29.68,NE,41,0.0,1.0,85,0.00,,---,0.01,9.00,VWS V14.01,2013-06-07 00:31:00,
2013-06-06 20:36:00,72.9,68.1,29.68,NE,41,0.0,2.0,85,0.00,,---,0.01,5.00,VWS V14.01,2013-06-07 00:36:00,
2013-06-06 20:41:00,72.7,68.3,29.68,NE,41,0.0,1.0,86,0.00,,---,0.01,5.00,VWS V14.01,2013-06-07 00:41:00,
2013-06-06 20:47:00,72.4,68.3,29.68,NE,41,0.0,2.0,87,0.00,,---,0.01,0.00,VWS V14.01,2013-06-07 00:47:00,
2013-06-06 20:52:00,72.1,68.0,29.68,NE,41,0.0,1.0,87,0.00,,---,0.01,0.00,VWS V14.01,2013-06-07 00:52:00,
2013-06-06 20:57:00,71.9,67.8,29.68,NE,41,0.0,1.0,87,0.00,,---,0.01,0.00,VWS V14.01,2013-06-07 00:57:00,
2013-06-06 21:02:00,71.7,68.0,29.68,NE,41,0.0,0.0,88,0.00,,---,0.01,0.00,VWS V14.01,2013-06-07 01:02:00,
2013-06-06 21:07:00,71.5,67.8,29.67,NE,41,0.0,0.0,88,0.00,,---,0.01,0.00,VWS V14.01,2013-06-07 01:07:00,
2013-06-06 21:12:00,71.3,67.6,29.67,NE,41,0.0,0.0,88,0.00,,---,0.01,0.00,VWS V14.01,2013-06-07 01:12:00,
2013-06-06 21:17:00,71.1,67.7,29.67,NE,41,0.0,0.0,89,0.00,,---,0.01,0.00,VWS V14.01,2013-06-07 01:17:00,
2013-06-06 21:22:00,70.8,67.4,29.68,NE,41,0.0,0.0,89,0.00,,---,0.01,0.00,VWS V14.01,2013-06-07 01:22:00,
2013-06-06 21:27:00,70.6,67.2,29.68,NE,41,0.0,0.0,89,0.00,,---,0.01,0.00,VWS V14.01,2013-06-07 01:27:00,
2013-06-06 21:32:00,70.4,67.3,29.68,NE,41,0.0,0.0,90,0.00,,---,0.01,0.00,VWS V14.01,2013-06-07 01:32:00,
2013-06-06 21:37:00,70.2,67.1,29.67,NE,41,0.0,0.0,90,0.00,,---,0.01,0.00,VWS V14.01,2013-06-07 01:37:00,
2013-06-06 21:43:00,70.0,66.9,29.67,NE,41,0.0,0.0,90,0.00,,---,0.01,0.00,VWS V14.01,2013-06-07 01:43:00,
2013-06-06 21:48:00,69.9,66.8,29.68,NE,41,0.0,0.0,90,0.00,,---,0.01,0.00,VWS V14.01,2013-06-07 01:48:00,
2013-06-06 21:53:00,69.7,66.6,29.68,NE,41,0.0,0.0,90,0.00,,---,0.01,0.00,VWS V14.01,2013-06-07 01:53:00,
2013-06-06 21:58:00,69.5,66.4,29.68,NE,41,0.0,0.0,90,0.00,,---,0.01,0.00,VWS V14.01,2013-06-07 01:58:00,
2013-06-06 22:03:00,69.4,66.3,29.68,NE,41,0.0,0.0,90,0.00,,---,0.01,0.00,VWS V14.01,2013-06-07 02:03:00,
2013-06-06 22:08:00,69.3,66.6,29.68,NE,41,0.0,0.0,91,0.00,,---,0.01,0.00,VWS V14.01,2013-06-07 02:08:00,
2013-06-06 22:13:00,69.3,66.6,29.69,NE,41,0.0,0.0,91,0.00,,---,0.01,0.00,VWS V14.01,2013-06-07 02:13:00,
2013-06-06 22:18:00,69.2,66.5,29.69,NE,41,0.0,0.0,91,0.00,,---,0.01,0.00,VWS V14.01,2013-06-07 02:18:00,
2013-06-06 22:23:00,69.0,66.3,29.69,NE,41,0.0,0.0,91,0.00,,---,0.01,0.00,VWS V14.01,2013-06-07 02:23:00,
2013-06-06 22:28:00,69.0,66.6,29.69,NE,41,0.0,0.0,92,0.00,,---,0.01,0.00,VWS V14.01,2013-06-07 02:28:00,
2013-06-06 22:33:00,68.9,66.5,29.69,NE,41,0.0,0.0,92,0.00,,---,0.01,0.00,VWS V14.01,2013-06-07 02:33:00,
2013-06-06 22:38:00,68.8,66.4,29.69,NE,41,0.0,0.0,92,0.00,,---,0.01,0.00,VWS V14.01,2013-06-07 02:38:00,
2013-06-06 22:43:00,68.6,66.2,29.69,NE,41,0.0,0.0,92,0.00,,---,0.01,0.00,VWS V14.01,2013-06-07 02:43:00,
2013-06-06 22:48:00,68.5,66.1,29.69,NE,41,0.0,0.0,92,0.00,,---,0.01,0.00,VWS V14.01,2013-06-07 02:48:00,
2013-06-06 22:54:00,68.4,66.0,29.69,NE,41,0.0,0.0,92,0.00,,---,0.01,0.00,VWS V14.01,2013-06-07 02:54:00,
2013-06-06 22:59:00,68.3,66.2,29.69,NE,41,0.0,0.0,93,0.00,,---,0.01,0.00,VWS V14.01,2013-06-07 02:59:00,
2013-06-06 23:04:00,68.2,66.1,29.69,NE,41,0.0,0.0,93,0.00,,---,0.01,0.00,VWS V14.01,2013-06-07 03:04:00,
2013-06-06 23:09:00,68.1,66.0,29.69,NE,41,0.0,0.0,93,0.00,,---,0.01,0.00,VWS V14.01,2013-06-07 03:09:00,
2013-06-06 23:14:00,68.1,66.0,29.69,NE,41,0.0,0.0,93,0.00,,---,0.01,0.00,VWS V14.01,2013-06-07 03:14:00,
2013-06-06 23:19:00,68.1,66.3,29.69,NE,41,0.0,0.0,94,0.00,,---,0.01,0.00,VWS V14.01,2013-06-07 03:19:00,
2013-06-06 23:24:00,68.1,66.3,29.69,NE,41,0.0,0.0,94,0.00,,---,0.01,0.00,VWS V14.01,2013-06-07 03:24:00,
2013-06-06 23:29:00,68.1,66.0,29.69,NE,41,0.0,0.0,93,0.00,,---,0.01,0.00,VWS V14.01,2013-06-07 03:29:00,
2013-06-06 23:34:00,68.1,66.0,29.69,NE,41,0.0,0.0,93,0.00,,---,0.01,0.00,VWS V14.01,2013-06-07 03:34:00,
2013-06-06 23:39:00,68.2,66.4,29.69,NE,41,0.0,0.0,94,0.00,,---,0.01,0.00,VWS V14.01,2013-06-07 03:39:00,
2013-06-06 23:44:00,68.2,66.4,29.69,NE,41,0.0,0.0,94,0.00,,---,0.01,0.00,VWS V14.01,2013-06-07 03:44:00,
2013-06-06 23:49:00,68.2,66.4,29.69,NE,41,0.0,0.0,94,0.00,,---,0.01,0.00,VWS V14.01,2013-06-07 03:49:00,
2013-06-06 23:54:00,68.2,66.4,29.69,NE,41,0.0,0.0,94,0.00,,---,0.01,0.00,VWS V14.01,2013-06-07 03:54:00,
2013-06-06 23:59:00,68.2,66.4,29.68,NE,41,0.0,0.0,94,0.00,,---,0.01,0.00,VWS V14.01,2013-06-07 03:59:00,